Flag for U.S.A. Weather past 2 weeks in Atlanta, Georgia, U.S.A.

Now
69 °F

Clear.


Feels Like: 69 °F
Forecast: 71 / 94 °F
Wind: No wind

Location: Fulton County Airport-Brown Field

Current Time: Aug 4, 2015 at 8:06:08 AM

Latest Report: Aug 4, 2015 at 6:53 AM


Visibility: 10 mi

Pressure: 29.96 "Hg

Humidity: 87%

Dew point: 65 °F

Location of AtlantaLocation

Historic Weather in Atlanta — Graph

°F

Atlanta temperature yesterday

Maximum temperature yesterday: 94 °F (at 6:53 PM)
Minimum temperature yesterday: 71 °F (at 6:53 AM)
Average temperature yesterday: 82 °F

Past Weeks' High & Low Weather Summary

 TemperatureHumidityPressure
High96 °F (Jul 28, 4:53 PM)97% (Jul 28, 5:53 AM)30.01 "Hg (Jul 28, 5:53 AM)
Low66 °F (Aug 2, 6:53 AM)33% (Aug 2, 5:53 PM)29.80 "Hg (Jul 21, 5:53 PM)
Average82 °F70%29.92 "Hg
* Reported Jul 20 6:53 AM — Aug 4 6:53 AM, Atlanta, Weather by CustomWeather, © 2015

Note: Actual official high and low records may vary slightly from our data, if they occured in-between our weather recording intervals... More about our weather records

Advertising

Atlanta weather history for previous 24 hours

 ConditionsComfort  
Time TempWeatherWind HumidityBarometerVisibility
6:53 AM
Tue, Aug 4
69 °FClear.No wind87%29.96 "Hg10 mi
5:53 AM69 °FClear.3 mph84%29.94 "Hg10 mi
4:53 AM70 °FClear.No wind87%29.93 "Hg10 mi
3:53 AM71 °FClear.No wind84%29.93 "Hg10 mi
2:53 AM72 °FClear.No wind81%29.92 "Hg10 mi
1:53 AM73 °FClear.No wind79%29.92 "Hg10 mi
12:53 AM74 °FClear.No wind79%29.92 "Hg10 mi
11:53 PM
Mon, Aug 3
74 °FClear.No wind79%29.92 "Hg10 mi
10:53 PM77 °FClear.No wind74%29.91 "Hg10 mi
9:53 PM78 °FPassing clouds.3 mph71%29.90 "Hg10 mi
8:53 PM85 °FPassing clouds.No wind55%29.88 "Hg10 mi
7:53 PM91 °FScattered clouds.5 mph38%29.87 "Hg10 mi
6:53 PM94 °FPassing clouds.No wind35%29.86 "Hg10 mi
5:53 PM92 °FOvercast.6 mph40%29.86 "Hg10 mi
4:53 PM93 °FPassing clouds.3 mph37%29.87 "Hg10 mi
3:53 PM93 °FScattered clouds.3 mph37%29.87 "Hg10 mi
2:53 PM92 °FPartly sunny.3 mph43%29.88 "Hg10 mi
1:53 PM90 °FScattered clouds.5 mph47%29.89 "Hg10 mi
12:53 PM89 °FPassing clouds.No wind53%29.90 "Hg10 mi
11:53 AM85 °FSunny.3 mph61%29.92 "Hg10 mi
10:53 AM83 °FSunny.No wind65%29.93 "Hg10 mi
9:53 AM81 °FSunny.3 mph67%29.92 "Hg10 mi
8:53 AM77 °FSunny.No wind77%29.92 "Hg10 mi
Weather by CustomWeather, © 2015

See weather overviewHow to use our weather pages